ワイズ-パンスターズ彗星

444P/WISE-PanSTARRS (2010)

English version
Home page
Updated on August 6, 2022

---------------------------------------------------------------------

・ プロフィール

符号 444P/2010 LK36
発見日 2010年6月9日
発見光度
発見者 Wide Field Infrared Survey Explorer (NASA)

・ 軌道要素

                    Epoch = 2010 Mar. 25.0 TT
     T = 2010 Mar. 20.50931 TT        Peri. = 177.16663
     e = 0.5358311                    Node  =  91.94124 2000.0
     q = 1.6006969 AU                 Incl. =  26.60578
       a =  3.4485224 AU   n = 0.15390563   P =   6.40 years

・ 光度変化

        m1 = 16.0 + 5 logΔ + 10.0 log r

---------------------------------------------------------------------

軌道要素は、CBET 5137に掲載されたものです。
光度グラフはComet for Windowsで作成したものです。

---------------------------------------------------------------------

Copyright(C) Seiichi Yoshida (comet@aerith.net). All rights reserved.